TimeEDT,TemperatureF,Dew PointF,Humidity,Sea Level PressureIn,VisibilityMPH,Wind Direction,Wind SpeedMPH,Gust SpeedMPH,PrecipitationIn,Events,Conditions,WindDirDegrees,DateUTC
12:54 AM,70.0,66.0,87,29.96,10.0,Calm,Calm,-,N/A,,Partly Cloudy,0,2013-07-22 04:54:00
1:07 AM,68.0,64.4,88,29.97,10.0,Calm,Calm,-,N/A,,Partly Cloudy,0,2013-07-22 05:07:00
1:54 AM,66.9,64.9,93,29.96,10.0,Calm,Calm,-,N/A,,Clear,0,2013-07-22 05:54:00
2:54 AM,68.0,64.9,90,29.96,10.0,Calm,Calm,-,N/A,,Clear,0,2013-07-22 06:54:00
3:54 AM,66.9,64.9,93,29.95,10.0,Calm,Calm,-,N/A,,Clear,0,2013-07-22 07:54:00
4:54 AM,66.9,64.9,93,29.96,10.0,Calm,Calm,-,N/A,,Clear,0,2013-07-22 08:54:00
5:54 AM,66.9,64.9,93,29.96,10.0,Calm,Calm,-,N/A,,Clear,0,2013-07-22 09:54:00
6:54 AM,69.1,66.0,90,29.97,10.0,NE,3.5,-,N/A,,Clear,40,2013-07-22 10:54:00
7:54 AM,71.1,64.9,81,29.97,10.0,NE,8.1,-,N/A,,Clear,40,2013-07-22 11:54:00
8:54 AM,73.9,66.0,76,29.98,10.0,NE,8.1,-,N/A,,Mostly Cloudy,40,2013-07-22 12:54:00
9:54 AM,75.9,66.0,71,29.97,10.0,NNE,8.1,-,N/A,,Clear,20,2013-07-22 13:54:00
10:54 AM,78.1,66.0,66,29.97,10.0,NNE,8.1,-,N/A,,Clear,30,2013-07-22 14:54:00
11:54 AM,80.1,66.9,64,29.96,10.0,NNE,8.1,-,N/A,,Clear,30,2013-07-22 15:54:00
12:54 PM,81.0,68.0,65,29.94,10.0,NNE,6.9,-,N/A,,Mostly Cloudy,30,2013-07-22 16:54:00
1:08 PM,80.6,69.8,70,29.94,10.0,ENE,4.6,-,N/A,,Overcast,70,2013-07-22 17:08:00
1:27 PM,82.4,69.8,66,29.93,10.0,East,5.8,-,N/A,,Mostly Cloudy,80,2013-07-22 17:27:00
1:41 PM,80.6,69.8,70,29.93,10.0,South,6.9,-,N/A,,Overcast,170,2013-07-22 17:41:00
1:49 PM,80.6,69.8,70,29.93,10.0,Calm,Calm,-,N/A,,Mostly Cloudy,0,2013-07-22 17:49:00
1:54 PM,81.0,69.1,67,29.92,10.0,Variable,3.5,-,N/A,,Mostly Cloudy,0,2013-07-22 17:54:00
2:54 PM,82.0,70.0,67,29.91,10.0,East,5.8,-,N/A,,Clear,100,2013-07-22 18:54:00
3:54 PM,82.9,70.0,65,29.87,10.0,East,4.6,-,N/A,,Scattered Clouds,80,2013-07-22 19:54:00
4:54 PM,78.1,69.1,74,29.87,8.0,South,11.5,-,0.00,Rain,Light Rain,170,2013-07-22 20:54:00
5:07 PM,73.4,69.8,88,29.87,2.5,SW,5.8,-,0.07,Rain,Rain,220,2013-07-22 21:07:00
5:13 PM,73.4,71.6,94,29.87,1.0,West,5.8,-,0.17,Rain,Heavy Rain,260,2013-07-22 21:13:00
5:23 PM,73.4,71.6,94,29.87,2.0,West,4.6,-,0.20,Rain,Light Rain,270,2013-07-22 21:23:00
5:31 PM,73.4,71.6,94,29.87,4.0,Calm,Calm,-,0.21,Rain,Light Rain,0,2013-07-22 21:31:00
5:54 PM,73.9,71.1,91,29.86,10.0,Calm,Calm,-,0.21,,Scattered Clouds,0,2013-07-22 21:54:00
6:54 PM,73.9,72.0,93,29.85,9.0,North,4.6,-,0.02,Rain,Light Rain,10,2013-07-22 22:54:00
7:54 PM,73.9,72.0,93,29.85,5.0,Calm,Calm,-,0.00,Rain,Light Rain,0,2013-07-22 23:54:00
8:17 PM,73.4,71.6,94,29.85,7.0,North,3.5,-,0.01,,Mostly Cloudy,10,2013-07-23 00:17:00
8:28 PM,73.4,71.6,94,29.85,7.0,Calm,Calm,-,0.01,,Overcast,0,2013-07-23 00:28:00
8:54 PM,73.9,71.1,91,29.84,7.0,NNE,3.5,-,0.01,,Overcast,30,2013-07-23 00:54:00
9:06 PM,73.4,71.6,94,29.84,7.0,Calm,Calm,-,N/A,,Mostly Cloudy,0,2013-07-23 01:06:00
9:54 PM,73.0,72.0,96,29.83,5.0,Calm,Calm,-,0.00,Rain,Light Rain,0,2013-07-23 01:54:00
10:54 PM,73.0,72.0,96,29.82,4.0,Calm,Calm,-,0.00,Rain,Light Rain,0,2013-07-23 02:54:00
11:23 PM,73.4,71.6,94,29.82,3.0,Calm,Calm,-,0.01,Rain,Light Rain,0,2013-07-23 03:23:00
11:46 PM,73.4,71.6,94,29.82,4.0,Calm,Calm,-,0.02,Rain,Light Rain,0,2013-07-23 03:46:00
11:54 PM,73.9,72.0,93,29.81,4.0,Calm,Calm,-,0.02,Rain,Light Rain,0,2013-07-23 03:54:00